Location: Fort Wayne
(41.1310°N, 85.1290°W)
Time: 13:10:16
(UTC-04:00)

Vanguard 3 - Visible Passes

Search period start: 23 October 2014 00:00
Search period end: 02 November 2014 00:00
Orbit: 508 x 3278 km, 33.3° (Epoch: 23 October)

Date Brightness Start Highest point End Pass type
(mag) Time Alt. Az. Time Alt. Az. Time Alt. Az.
23 Oct 8.7 06:19:37 11° S 06:19:37 11° S 06:19:54 10° S visible
24 Oct 10.7 21:16:09 10° SSE 21:17:25 11° SSE 21:17:25 11° SSE visible
25 Oct 10.6 22:10:05 10° SSW 22:14:32 17° S 22:14:32 17° S visible
26 Oct 10.5 20:58:35 10° S 21:06:31 16° SSE 21:06:54 16° SSE visible
26 Oct 10.7 23:08:54 10° SW 23:11:39 16° SSW 23:11:39 16° SSW visible
27 Oct 10.3 21:55:29 10° SSW 22:04:00 25° S 22:04:00 25° S visible
28 Oct 10.3 20:43:02 10° S 20:54:08 21° SSE 20:56:19 21° SE visible
28 Oct 10.4 22:55:04 10° SW 23:01:04 24° SSW 23:01:04 24° SSW visible
29 Oct 10.6 19:32:40 10° S 19:40:43 15° SE 19:47:34 10° ESE visible
29 Oct 10.0 21:41:09 10° SSW 21:53:22 33° S 21:53:22 33° S visible
29 Oct 10.9 23:55:59 10° WSW 23:58:07 15° WSW 23:58:07 15° WSW visible
30 Oct 10.1 20:28:07 10° SSW 20:41:35 27° SSE 20:45:38 24° SE visible
30 Oct 10.1 22:41:18 10° SW 22:50:23 33° SSW 22:50:23 33° SSW visible
31 Oct 10.6 19:16:36 10° S 19:28:02 20° SE 19:37:23 10° ESE visible
31 Oct 9.7 21:27:02 10° SW 21:42:30 40° SSE 21:42:36 40° SSE visible
31 Oct 10.6 23:42:36 10° WSW 23:47:21 22° WSW 23:47:21 22° WSW visible
01 Nov 10.0 20:13:34 10° SSW 20:28:55 32° SSE 20:34:48 25° ESE visible
01 Nov 9.8 22:27:38 10° WSW 22:39:32 43° SSW 22:39:32 43° SSW visible
